Regional Weather Roundup
Issued by NWS Sioux Falls, SD

Home | Current Version | Previous Version | Text Only | Print | Product List | Glossary On
Versions: 1 2 3 4 5 6 7 8 9 10 11 12 13 14 15 16 17 18 19 20 21 22 23 24 25 26 27 28 29 30 31 32 33 34 35 36 37 38 39 40 41 42 43 44 45 46 47 48 49 50
000
ASUS43 KFSD 290810
RWRFSD

WEATHER ROUNDUP FOR SE SOUTH DAKOTA/SW MINNESOTA/NW IOWA
NATIONAL WEATHER SERVICE SIOUX FALLS SD
300 AM CDT SAT APR 29 2017

NOTE: "FAIR" INDICATES FEW OR NO CLOUDS BELOW 12,000 FEET WITH NO
SIGNIFICANT WEATHER AND OR OBSTRUCTIONS TO VISIBILITY.


SDZ038>040-050-052>070-290900-
SOUTHEAST SOUTH DAKOTA

CITY           SKY/WX    TMP DP  RH WIND       PRES   REMARKS
BROOKINGS      CLOUDY    34  24  67 NE6       30.18F WCI  29
CHAMBERLAIN    CLOUDY    40  23  49 N6        30.19S
HURON          CLOUDY    24  20  84 NW5       30.22R WCI  18
MADISON        FAIR      30  27  86 NE9       30.18F WCI  22
MITCHELL       CLOUDY    33  25  72 NW7       30.23R WCI  27
SIOUX FALLS    CLOUDY    33  26  75 N6        30.16F WCI  28
WINNER         FAIR      37  25  61 N6        30.18S
YANKTON        CLOUDY    43  25  49 N10       30.15F
$$

MNZ071-072-080-081-089-090-097-098-290900-
SOUTHWEST MINNESOTA

CITY           SKY/WX    TMP DP  RH WIND       PRES   REMARKS
FAIRMONT       PTCLDY    36  30  79 N7        30.15F
JACKSON        CLOUDY    32  28  86 N3        30.15S
LUVERNE        CLOUDY    36  27  69 N6        30.16F
MARSHALL       CLOUDY    31  25  78 NW7       30.21S WCI  24
MONTEVIDEO     PTCLDY    34  21  60 CALM      30.21R
PIPESTONE      MOCLDY    36  21  55 NE6       30.17S
REDWOOD FALLS  CLOUDY    38  24  57 N5        30.19R
TRACY          CLOUDY    37  27  67 N8        30.20R
WINDOM         PTCLDY    36  27  69 N9        30.16F
WORTHINGTON    PTCLDY    33  26  75 N12       30.17F WCI  24
$$

IAZ001>003-012>014-020>022-031-032-NEZ013-014-SDZ071-290900-
NORTHWEST IOWA

CITY           SKY/WX    TMP DP  RH WIND       PRES   REMARKS
CHEROKEE       MOCLDY    37  33  85 N7        30.11F
DENISON        CLOUDY    41  36  81 NE12      30.04F
ESTHERVILLE    CLOUDY    33  30  88 N8        30.13F WCI  26
LE MARS        CLOUDY    37  32  81 N5        30.13F
ORANGE CITY    CLOUDY    39  30  70 N8        30.12F
SHELDON        CLOUDY    36  30  80 N10       30.10F
SIOUX CITY     CLOUDY    43  34  70 N14       30.08F
SPENCER        CLOUDY    38  31  76 N9        30.13F
$$

ABBREVIATIONS USED IN REMARKS
   TC - TEMPERATURE IN CELSIUS
  WCI - WIND CHILL INDEX
   HX - HEAT INDEX
  VSB - VISIBILITY




USA.gov is the U.S. government's official web portal to all federal, state and local government web resources and services.